Westfield, MA

4:44 AM EDT on April 24, 2017 (GMT -0400)
Barnes Municipal

Weather History for KBAF - August, 2013

Change the Weather History Date:

Friday, August 23, 2013

  Actual Average Record
Temperature  
Mean Temperature 70 °F -  
Max Temperature 82 °F 79 °F 93 °F (1996)
Min Temperature 59 °F 56 °F 48 °F (2004)
Cooling Degree Days 6    
Growing Degree Days 20 (Base 50)    
Moisture  
Dew Point 58 °F    
Average Humidity 64    
Maximum Humidity 87    
Minimum Humidity 36    
Precipitation  
Precipitation 0.03 in - - ()
Sea Level Pressure  
Sea Level Pressure 29.98 in    
Wind  
Wind Speed 6 mph (North)    
Max Wind Speed 15 mph    
Max Gust Speed 21 mph    
Visibility 10 miles    
Events      
Averages and records for this station are not official NWS values.
T = Trace of Precipitation, MM = Missing Value Source: NWS Daily Summary

Daily Weather History Graph

Daily Weather History Graph

Search for Another Location

Airport or City:

Trip Planner

Search our weather history database for the weather conditions in past years. The results will help you decide how hot, cold, wet, or windy it might be!

Date:

Astronomy

Aug. 23, 2013 Rise Set
Actual Time 6:07 AM EDT 7:39 PM EDT
Civil Twilight 5:37 AM EDT 8:08 PM EDT
Nautical Twilight 5:02 AM EDT 8:43 PM EDT
Astronomical Twilight 4:24 AM EDT 9:21 PM EDT
Moon 8:51 PM EDT (8/23) 9:03 AM EDT (8/23)
Length of Visible Light 14h 30m
Length of Day
13h 31m
Waning Gibbous, 91% of the Moon is Illuminated
Aug 23
Waning Gibbous
Aug 28
Last Quarter
Sep 5
New
Sep 12
First Quarter
Sep 19
Full

Hourly Weather History & Observations

Time (EDT) Temp. Heat Index Dew Point Humidity Pressure Visibility Wind Dir Wind Speed Gust Speed Precip Events Conditions
12:53 AM 70.0 °F - 66.0 °F 87% 29.86 in 10.0 mi Calm Calm - 0.03 in   Partly Cloudy
1:53 AM 71.1 °F - 66.9 °F 87% 29.86 in 10.0 mi NNW 5.8 mph - N/A   Overcast
2:53 AM 71.1 °F - 66.0 °F 84% 29.86 in 10.0 mi NNW 5.8 mph - N/A   Overcast
3:53 AM 69.1 °F - 64.9 °F 87% 29.86 in 10.0 mi North 4.6 mph - N/A   Partly Cloudy
4:53 AM 66.9 °F - 63.0 °F 87% 29.88 in 10.0 mi Calm Calm - N/A   Clear
5:53 AM 66.0 °F - 62.1 °F 87% 29.91 in 10.0 mi NW 8.1 mph - N/A   Clear
7:53 AM 68.0 °F - 59.0 °F 73% 29.95 in 10.0 mi North 5.8 mph - N/A   Clear
8:53 AM 70.0 °F - 60.1 °F 71% 29.97 in 10.0 mi NNW 6.9 mph - N/A   Clear
9:53 AM 73.9 °F - 57.9 °F 57% 29.97 in 10.0 mi North 11.5 mph - N/A   Clear
10:53 AM 77.0 °F - 57.0 °F 50% 29.97 in 10.0 mi North 13.8 mph - N/A   Clear
11:53 AM 79.0 °F - 54.0 °F 42% 29.97 in 10.0 mi North 15.0 mph 20.7 mph N/A   Scattered Clouds
12:53 PM 80.1 °F 79.9 °F 53.1 °F 39% 29.96 in 10.0 mi North 15.0 mph - N/A   Clear
1:53 PM 80.1 °F - 52.0 °F 38% 29.97 in 10.0 mi North 13.8 mph - N/A   Clear
2:53 PM 81.0 °F - 52.0 °F 36% 29.97 in 10.0 mi NNE 11.5 mph - N/A   Clear
3:53 PM 81.0 °F 80.4 °F 53.1 °F 38% 29.98 in 10.0 mi NNE 8.1 mph - N/A   Clear
4:53 PM 80.1 °F 80.0 °F 54.0 °F 40% 29.99 in 10.0 mi NNE 9.2 mph - N/A   Clear
5:53 PM 78.1 °F - 55.0 °F 45% 30.01 in 10.0 mi North 11.5 mph - N/A   Clear
6:53 PM 73.9 °F - 57.0 °F 55% 30.02 in 10.0 mi North 8.1 mph - N/A   Clear
7:53 PM 69.1 °F - 57.9 °F 68% 30.05 in 10.0 mi Calm Calm - N/A   Clear
8:53 PM 66.0 °F - 55.0 °F 68% 30.08 in 10.0 mi North 4.6 mph - N/A   Clear
9:53 PM 64.9 °F - 53.1 °F 65% 30.10 in 10.0 mi North 3.5 mph - N/A   Clear
10:53 PM 60.1 °F - 54.0 °F 80% 30.13 in 10.0 mi Calm Calm - N/A   Clear
11:53 PM 59.0 °F - 52.0 °F 78% 30.15 in 10.0 mi Calm Calm - N/A   Clear